Tracking 17154 objects as of 3-August-2015
HD Live streaming from Space Station

COSMOS 1018

Track COSMOS 1018 now!
10-day predictions
COSMOS 1018 is classified as:


NORAD ID: 10935
Int'l Code: 1978-056F
Perigee: 1,448.7 km
Apogee: 1,495.8 km
Inclination: 74.0 °
Period: 115.2 minutes
Semi major axis: 7843 km
RCS: 0.7262 m2 (medium)
Launch date: June 7, 1978
Source: Commonwealth of Independent States (former USSR) (CIS)
Your satellite tracking list
Your tracking list is empty





NASA's NSSDC Master Catalog

Two Line Element Set (TLE):
1 10935U 78056F   15214.70070698 -.00000031  00000-0 -97025-4 0  9997
2 10935 074.0242 206.6781 0030013 270.7323 204.0272 12.49854625695306

Source of the keplerian elements: AFSPC

N2YO: 366